User: anonymous   Login
Location: Long Point Provincial Park
(42.5794°N, 80.4103°W)
Time: 11:07:10
(UTC-04:00)
Language:

Iridium 19 - Orbit

View from above orbital plane
View from above orbital plane
View from above satellite
View from above satellite

Ground track
Ground track

The orbit data is extracted from the following two-line orbital elements,

1 24965U 97056A   16150.46536634  .00000063  00000-0  15561-4 0  9994
2 24965  86.3954 119.1311 0002267  85.6371 274.5083 14.34214910977558
Epoch (UTC): 29 May 2016 11:10:07
Eccentricity: 0.0002267
inclination: 86.3954°
perigee height: 776 km
apogee height: 779 km
right ascension of ascending node: 119.1311°
argument of perigee: 85.6371°
revolutions per day: 14.34214910
mean anomaly at epoch: 274.5083°
orbit number at epoch: 97755

The dashed part of the orbit path shows where the satellite is in the earth's shadow,  

DLR